{"data":{"norad_id":53567,"intl_designator":"2022-101AS","name":"STARLINK-4585","alt_names":[],"object_type":"PAYLOAD","status":"ACTIVE","operator":null,"country":"US","launch_date":"2022-08-19","launch_site_code":"AFETR","launch_vehicle":null,"mission":null,"orbit_class":"UNKNOWN","rcs_meters":null,"size_class":null,"mass_kg":null,"dimensions":null,"purposes":["comms"],"wikipedia_slug":null,"has_3d_model":false,"image_url":null,"decayed_at":null,"tle_current":{"epoch":"2026-05-25T04:43:12.999936Z","epoch_age_seconds":55366,"freshness":"FRESH","line1":"1 53567U 22101AS  26145.19667824  .00000715  00000+0  63021-4 0  9991","line2":"2 53567  53.2131  70.7706 0001351  67.8720 292.2415 15.08841048207991","mean_motion":15.08841048,"eccentricity":0.0001351,"inclination_deg":53.2131,"raan_deg":70.7706,"arg_perigee_deg":67.872,"mean_anomaly_deg":292.2415,"bstar":6.3021e-5,"rev_number":20799,"period_min":95.437488389433,"perigee_km":538.80558044144,"apogee_km":540.674790857,"semimajor_km":6917.8771856492,"source":"CELESTRAK","updated_at":"2026-05-25T13:38:17.469501Z"}}}